Regional Weather Roundup
Issued by NWS

Home | Current Version | Previous Version | Graphics & Text | Print | Product List | Glossary On
Versions: 1 2 3 4 5 6 7 8 9 10 11 12 13 14 15 16 17 18 19 20 21 22 23 24 25 26 27 28 29 30 31 32 33 34 35 36 37 38 39 40 41 42 43 44 45 46 47 48 49 50
000
ASUS43 KDMX 161401
RWRIA

WEATHER ROUNDUP FOR IOWA
NATIONAL WEATHER SERVICE DES MOINES IA
900 AM CDT MON OCT 16 2017

NOTE: "FAIR" INDICATES FEW OR NO CLOUDS BELOW 12,000 FEET WITH NO
SIGNIFICANT WEATHER AND/OR OBSTRUCTIONS TO VISIBILITY.

* - THESE STATIONS ARE NOT NWS STATIONS...THUS NOT UNDER NWS
QUALITY CONTROL.  THEY ALSO DO NOT REPORT WEATHER SUCH
AS PRECIPITATION OR FOG.

IAZ001>003-012>014-020>022-031>034-043>046-161500-
   NORTHWEST IOWA

CITY           SKY/WX    TMP DP  RH WIND       PRES   REMARKS
CARROLL *      SUNNY     48  41  76 SW6       30.32R
DENISON *      SUNNY     37  36  93 CALM      30.33S
LE MARS *      SUNNY     37  36  93 S6        30.28S WCI  33
ORANGE CITY *  SUNNY     37  36  93 S6        30.27S WCI  33
SHELDON *      SUNNY     39  36  87 S3        30.26R
SIOUX CITY     SUNNY     36  35  96 SE7       30.30S WCI  30
SPENCER        SUNNY     37  35  92 CALM      30.27F
STORM LAKE *   SUNNY     43  36  75 SW7       30.29S
$$

IAZ055>058-069>071-079>083-090>094-161500-
   SOUTHWEST IOWA

CITY           SKY/WX    TMP DP  RH WIND       PRES   REMARKS
ATLANTIC *     SUNNY     37  37 100 CALM      30.35R
AUDUBON *      SUNNY     37  36  93 CALM      30.34R
CLARINDA *     SUNNY     41  41 100 S3        30.39R
COUNCIL BLFS * SUNNY     48  37  66 S7        30.33S
CRESTON *      SUNNY     43  39  87 SW6       30.36S
HARLAN  *      SUNNY     37  37 100 S5        30.37R WCI  34
LAMONI         SUNNY     48  38  68 CALM      30.36R
RED OAK *      SUNNY     41  39  93 S5        30.36S
SHENANDOAH *   SUNNY     43  39  87 CALM      30.37S
$$

IAZ047>049-059>061-072>074-084-161500-
   CENTRAL IOWA

CITY           SKY/WX    TMP DP  RH WIND       PRES   REMARKS
AMES           SUNNY     42  40  92 SW3       30.32R
ANKENY *       SUNNY     41  39  93 CALM      30.35R
BOONE *        SUNNY     43  37  81 W6        30.31R
CHARITON *     SUNNY     45  37  76 SW7       30.34S
DES MOINES     SUNNY     44  38  79 CALM      30.33R
GRINNELL*      MOSUNNY   42  38  83 W5        30.34R
KNOXVILLE *    SUNNY     46  37  71 W8        30.33R
MARSHALLTOWN   SUNNY     40  37  89 W6        30.31R
NEWTON *       SUNNY     41  37  87 W3        30.33R
PELLA *        SUNNY     46  40  77 SW3       30.35R
$$

IAZ004>006-015-016-023>025-035-036-161500-
   NORTH CENTRAL IOWA

CITY           SKY/WX    TMP DP  RH WIND       PRES   REMARKS
ALGONA *       SUNNY     41  37  87 SW7       30.28S
CLARION *      SUNNY     39  39 100 SW3       30.30S
ESTHERVILLE    SUNNY     38  36  92 SW3       30.26S
FORT DODGE *   SUNNY     40  36  86 CALM      30.31S
MASON CITY     SUNNY     41  38  89 CALM      30.30R
FOREST CITY *    N/A     36  36 100 SW3       30.29R
WEBSTER CITY * SUNNY     39  37  93 CALM      30.29S
IOWA FALLS *     N/A     41  37  86 SW3       30.31S
$$

IAZ007>011-017>019-026>030-037>042-050>054-066-161500-
   NORTHEAST IOWA

CITY           SKY/WX    TMP DP  RH WIND       PRES   REMARKS
CEDAR RAPIDS   SUNNY     43  39  86 CALM      30.32R
CHARLES CITY * SUNNY     41  39  93 CALM      30.29S
CLINTON *      SUNNY     43  40  89 W6        30.33R
DECORAH *      SUNNY     41  37  87 CALM      30.28R
DUBUQUE        SUNNY     40  38  93 SW3       30.31R
MONTICELLO *   SUNNY     43  39  87 CALM      30.32R
OELWEIN *      SUNNY     41  39  93 CALM      30.31R
WATERLOO       SUNNY     40  36  86 CALM      30.30S
$$

IAZ064-065-067-068-078-161500-
   EAST CENTRAL IOWA

CITY           SKY/WX    TMP DP  RH WIND       PRES   REMARKS
DAVENPORT      SUNNY     44  39  82 W7        30.34S
IOWA CITY      SUNNY     43  38  82 CALM      30.35R
MUSCATINE *    SUNNY     45  39  81 W5        30.35R
QUAD CITIES    SUNNY     46  40  79 W6        30.33R
$$

IAZ062-063-075>077-085>089-095>099-161500-
   SOUTHEAST IOWA

CITY           SKY/WX    TMP DP  RH WIND       PRES   REMARKS
BURLINGTON     SUNNY     45  41  86 W3        30.35R
FAIRFIELD *    SUNNY     45  37  76 W5        30.34R
FORT MADISON * SUNNY     45  41  87 W5        30.36R
KEOKUK *       SUNNY     46  41  81 SW6       30.36R
OTTUMWA        SUNNY     45  38  76 SW5       30.34R
WASHINGTON *   SUNNY     45  39  81 W7        30.35S
$$

ABBREVIATIONS USED IN REMARKS
   TC - TEMPERATURES IN CELSIUS
  WCI - WIND CHILL INDEX
   HX - HEAT INDEX
  VSB - VISIBILITY
$$





USA.gov is the U.S. government's official web portal to all federal, state and local government web resources and services.